User: anonymous   Login
Location: Turtle Rock Observatory
(36.6913°N, 81.9708°W)
Time: 15:34:53
(UTC-04:00)
Language:

Cosmos 1125 Rocket - Orbit

View from above orbital plane
View from above orbital plane
View from above satellite
View from above satellite

Ground track
Ground track

The orbit data is extracted from the following two-line orbital elements,

1 11511U 79078B   16145.00225575 -.00000000  00000-0  89152-5 0  9994
2 11511  74.0364 310.5870 0016535 288.7749  71.1610 14.36711154922725
Epoch (UTC): 24 May 2016 00:03:14
Eccentricity: 0.0016535
inclination: 74.0364°
perigee height: 757 km
apogee height: 781 km
right ascension of ascending node: 310.5870°
argument of perigee: 288.7749°
revolutions per day: 14.36711154
mean anomaly at epoch: 71.1610°
orbit number at epoch: 92272

The dashed part of the orbit path shows where the satellite is in the earth's shadow,  

DLR